NOAA 16 DEB, 42374

Orbit data source: Space-Track

NOAA 16 DEB, 42374 is space debris in SSO originally from a launch on Thu, 21 Sep 2000 UTC launched from the Air Force Western Test Range (AFWTR). Debris objects in space refer to the collection of defunct objects orbiting the Earth. Examples of debris include non-operational satellites, rocket bodies, and fragments generated from explosions, collisions, or faulty payload assembly.

Loading next visibility...
Identifier
42374, 2000-055RS
Orbit
SSO
Country
Flag of USUS
Related business
Manufacturer
Unknown
Mission
Spacecraft
Bus & Motor
Unknown
Mass
Unknown
Launch date (UTC)
2000-09-21 (26 years ago)
Launch vehicle
Unknown
Launch site
Air Force Western Test Range (AFWTR)
Object type
Payload
Rocket body
Debris
Shape & HBR
Unknown shape, 0.1 m
Radar Cross Section
Small (<0.1 m²)

Expand to show TLE details & history
Last TLE update: 3 days ago

TLE from 3 days ago
0 NOAA 16 DEB
1 42374U 00055RS  26123.24268922  .00048133  00000-0  65968-2 0  9994
2 42374  98.8460 271.2696 0011431 172.8999 187.2373 14.78190398522128
Epoch: 2026-05-03T05:49Z
TLE epoch observation values (Epoch: 2026-05-03T05:49:28.348Z)
Latitude
-0.00003°
Longitude
-37.24756°
Altitude
645.986 km
Speed
7.531 km/s
True Right ascension
18h 05m 04s
True Declination
0° 00' 00"
Sunlit
Object was in full shadow at epoch
Visualization orbit readout
Latitude
Unknown
Longitude
Unknown
Altitude
Unknown
Speed
Unknown
Apparent Right ascension
Unknown
Apparent Declination
Unknown
Sunlit
N/A
Visualization observer readout
Local Sidereal Time
05:52:53
Azimuth
Unknown
Elevation
Unknown
Doppler factor
Unknown
Orbital elements
Apogee altitude
640.143 km
Perigee altitude
624.117 km
Semi-major axis
7,010.267 km
Eccentricity
0.00114
Inclination
98.846°
RAAN
271.2696°
Arg. of periapsis
172.8999°
True anomaly
187.22082°
Mean anomaly
187.2373°
Eccentric anomaly
187.22906°
Mean motion
3.69778 °/min
Orbital period
97.36 mins
BSTAR
0.0065968
Loading maneuver chart data...
Computing Atmospheric mass density...
Loading historical data...
Loading historical data...
Loading historical data...
Loading historical data...
Loading historical data...
Loading historical data...
Loading historical data...

Documentation

Showing up to 5 results
|